[[{"header":{"parameterUnit":"m.s-1","parameterCategory":2,"la1":30.2991,"la2":30.254,"lo1":-89.0895,"lo2":-89.0444,"dy":0.0017,"dx":0.0017,"nx":28,"ny":28,"refTime":"2024-06-10T09:00:00:Z","depth":"0","parameterNumber":2,"parameterNumberName":"U-component_of_CURRENTS"},"data":[0,0,0,0,0,0,0,0,0,0,0,0,0,0,0,0,0,0,0,0,0,0,0,0,0,0,0,0,0,0,0,0,0,0,0,0,0,0,0,0,0,0,0,0,0,0,0,0,0,0,0,0,0,0,0,0,0,0,0.0015,0.0013,0,-0.009,-0.0091,-0.0092,-0.0147,-0.0147,-0.0148,-0.0148,-0.0152,-0.0151,-0.0151,0,0,0,0,0,0,0,0,0,0,0,0,0,0.0102,0.0102,0.0015,0.0013,0.0012,-0.009,-0.0091,-0.0093,-0.0147,-0.0147,-0.0148,-0.0148,-0.0152,-0.0152,-0.0151,0,0,0,0,0,0,0,0,0,0,0,0,0,0.0041,0.0102,0.0015,-0.003,-0.0035,-0.009,-0.0092,-0.0093,-0.0147,-0.0147,-0.0148,-0.0148,-0.0152,-0.0152,-0.0151,-0.0139,0,0,-0.015,-0.015,0,0,0,0,0,0,0,0,0.0044,0.0038,-0.0022,-0.0027,-0.0033,-0.0109,-0.0062,-0.0104,-0.0147,-0.0101,-0.0148,-0.0148,-0.0129,-0.0131,-0.0147,-0.0139,-0.014,-0.015,-0.015,-0.015,-0.015,0,0,0,0,0,0,0,0.0049,0.0042,-0.0024,-0.0023,-0.003,-0.0068,-0.0076,-0.0071,-0.0107,-0.0105,-0.011,-0.0126,-0.0131,-0.0147,-0.0147,-0.014,-0.015,-0.015,-0.015,-0.015,-0.0122,-0.0121,0,0,0,0,0,0,0.006,0.0046,-0.0021,-0.0027,0.0002,-0.0069,-0.0078,-0.0081,-0.0109,-0.0116,-0.0126,-0.0129,-0.0147,-0.0147,-0.0147,-0.0137,-0.015,-0.015,-0.0149,-0.0122,-0.0122,-0.0121,0,0,0,0,0,0,0.0062,0.0055,-0.0016,0.0004,-0.0008,-0.007,-0.0073,-0.0083,-0.0101,-0.0127,-0.0131,-0.0134,-0.0148,-0.0148,-0.0142,-0.0137,-0.0149,-0.0149,-0.0123,-0.0122,-0.0121,-0.0115,0,0,0,0,0,0,0.0066,0.0057,0.0067,0.0005,-0.0009,-0.0044,-0.0073,-0.0085,-0.0112,-0.0116,-0.0134,-0.0136,-0.0148,-0.0142,-0.0141,-0.0137,-0.0149,-0.0124,-0.0123,-0.0122,-0.0115,-0.0114,-0.0112,0,0,0,0,0,0.0069,0.0084,0.0068,0.006,0.0004,-0.0044,-0.0054,-0.0098,-0.0111,-0.0115,-0.0128,-0.0135,-0.0135,-0.0141,-0.014,-0.0136,-0.0124,-0.0123,-0.0122,-0.0116,-0.0114,-0.0112,0,0,0,0,0,0,0.0129,0.0077,0.0059,0.0059,0.0012,-0.0054,-0.006,-0.0093,-0.0109,-0.0107,-0.0127,-0.0129,-0.0125,-0.0125,-0.0132,-0.0124,-0.0131,-0.0129,-0.0127,-0.0124,-0.0123,-0.0123,-0.0149,0,0,0,0,0,0.0146,0.0148,0.0082,0.0085,0.0063,0.0004,-0.0018,-0.0052,-0.0082,-0.0092,-0.0107,-0.0114,-0.0119,-0.0117,-0.0121,-0.0111,-0.0058,-0.0107,-0.0105,-0.0104,-0.0103,-0.005,-0.0043,-0.0117,-0.0117,-0.0117,0,0,0.0171,0.0143,0.0145,0.0098,0.0062,0.0027,-0.0009,-0.0041,-0.0065,-0.0085,-0.0099,-0.0107,-0.0115,-0.0114,-0.011,-0.0113,-0.0037,-0.0102,-0.0101,-0.0101,-0.0048,-0.004,-0.0034,-0.0116,-0.0116,-0.0116,0,0,0.0208,0.0195,0.0197,0.0156,0.0099,0.0058,0.005,-0.0014,-0.0033,-0.005,-0.0072,-0.0077,-0.0081,-0.0095,-0.01,-0.0085,-0.0032,-0.0082,-0.0073,-0.0021,-0.0015,-0.0009,0.0147,0.0166,-0.008,-0.008,-0.008,0,0.0243,0.0219,0.019,0.0164,0.0126,0.0073,0.0043,0.0018,-0.0033,-0.0044,-0.0047,-0.0065,-0.0075,-0.008,-0.0084,-0.0082,-0.0007,-0.0083,-0.0018,-0.0012,-0.0006,0.0151,0.0173,-0.0079,-0.0079,-0.0079,-0.0079,0,0.0259,0.0231,0.0226,0.0177,0.0145,0.0109,0.0056,0.0038,0.0013,-0.0018,-0.0025,-0.0036,-0.0047,-0.0052,-0.0067,-0.0038,0.0023,-0.0023,-0.0024,0.0002,0.0167,0.019,-0.0078,-0.0079,-0.0079,-0.0079,0,0,0.0357,0.0255,0.0253,0.0203,0.0137,0.0102,0.0085,0.0036,0.0026,0.0002,0.0004,-0.0023,-0.0027,-0.0033,-0.0045,-0.0011,0.0114,0.0002,0.0005,0.016,0.0322,0.065,0.0707,0.0078,0.008,0.0081,0.0449,0,0.0369,0.0298,0.0261,0.0197,0.014,0.0094,0.0077,0.004,0.0025,0.0027,0.0018,0.0027,-0.0019,-0.0004,0.0013,0.0088,0.0161,0.0025,0.027,0.028,0.0568,0.0738,0.0863,0.1224,0.0471,0.0475,0.0478,0,0.039,0.0327,0.0246,0.0155,0.0135,0.0104,0.0058,0.0039,0.0038,0.0044,0.005,0.0063,0.0119,0.0071,0.0229,0.0151,0.0236,0.0296,0.0311,0.0623,0.0649,0.106,0.1294,0.1187,0.0513,0.051,0.0508,0,0.0412,0.0324,0.0244,0.0206,0.0107,0.0083,0.0054,0.0034,0.0061,0.0073,0.0158,0.0156,0.0277,0.0301,0.0475,0.0346,0.0713,0.0544,0.093,0.0957,0.1118,0.1158,0.1276,0.0658,0.0657,0.0656,0.0655,0,0.0407,0.0353,0.0238,0.0182,0.0127,0.0074,0.0059,0.0041,0.0095,0.0213,0.0179,0.0356,0.0344,0.056,0.0574,0.0941,0.0817,0.1013,0.1087,0.114,0.1175,0.1131,0.1054,0.067,0.0667,0.0665,0.0662,0,0.0408,0.0338,0.0236,0.013,0.0113,0.0066,0.0085,0.0131,0.0174,0.0354,0.0403,0.0589,0.0918,0.1001,0.1179,0.1218,0.1454,0.1551,0.1697,0.1783,0.1983,0.1905,0.2102,0.2108,0.1995,0.2006,0.2015,0,0.0389,0.0325,0.0196,0.0183,0.013,0.0089,0.0128,0.0149,0.0275,0.0562,0.0732,0.1082,0.141,0.1862,0.2009,0.2231,0.1972,0.2436,0.2173,0.2116,0.2075,0.1838,0.1802,0.2405,0.2416,0.2425,0.2433,0,0.0346,0.0292,0.0205,0.0186,0.0196,0.0248,0.0334,0.0442,0.0602,0.0825,0.1255,0.1526,0.2067,0.2409,0.2748,0.285,0.2399,0.2642,0.2483,0.2389,0.223,0.2233,0.2086,0.2515,0.2507,0.2501,0.2496,0.2493,0.0324,0.0275,0.0207,0.0218,0.0279,0.0477,0.058,0.0769,0.1033,0.1421,0.164,0.2044,0.2478,0.3013,0.3167,0.3382,0.3122,0.3214,0.3132,0.2898,0.2881,0.3028,0.3589,0.3587,0.3585,0.3584,0.3582,0,0.032,0.031,0.0297,0.0367,0.0547,0.0552,0.0807,0.0976,0.1354,0.1645,0.2013,0.2482,0.2957,0.3236,0.3639,0.3708,0.3498,0.3651,0.3199,0.314,0.3216,0.3206,0.383,0.383,0.383,0.383,0.383,0.383,0.0326,0.0333,0.0359,0.0648,0.0752,0.1034,0.1209,0.1424,0.1628,0.2021,0.2248,0.2435,0.2818,0.3403,0.369,0.3732,0.3435,0.353,0.3349,0.3238,0.3179,0.3122,0.3085,0.3674,0.3674,0.3166,0.3163,0.3161]},{"header":{"parameterUnit":"m.s-1","parameterCategory":2,"la1":30.2991,"la2":30.254,"lo1":-89.0895,"lo2":-89.0444,"dy":0.0017,"dx":0.0017,"nx":28,"ny":28,"refTime":"2024-06-10T09:00:00:Z","depth":"0","parameterNumber":3,"parameterNumberName":"V-component_of_CURRENTS"},"data":[0,0,0,0,0,0,0,0,0,0,0,0,0,0,0,0,0,0,0,0,0,0,0,0,0,0,0,0,0,0,0,0,0,0,0,0,0,0,0,0,0,0,0,0,0,0,0,0,0,0,0,0,0,0,0,0,0,0,-0.1437,-0.1437,0,-0.1494,-0.1495,-0.1495,-0.1512,-0.1512,-0.1512,-0.1511,-0.1561,-0.1563,-0.1564,0,0,0,0,0,0,0,0,0,0,0,0,0,-0.1283,-0.1286,-0.1437,-0.1437,-0.1438,-0.1494,-0.1495,-0.1496,-0.1513,-0.1512,-0.1511,-0.1511,-0.156,-0.1562,-0.1564,0,0,0,0,0,0,0,0,0,0,0,0,0,-0.1347,-0.1287,-0.1437,-0.1452,-0.1454,-0.1494,-0.1495,-0.1496,-0.1513,-0.1512,-0.1511,-0.1511,-0.156,-0.1562,-0.1565,-0.1593,0,0,-0.1573,-0.1574,0,0,0,0,0,0,0,0,-0.1344,-0.1353,-0.1449,-0.1451,-0.1453,-0.1494,-0.1459,-0.1528,-0.1513,-0.1492,-0.1511,-0.151,-0.1537,-0.1542,-0.1556,-0.1596,-0.1598,-0.1573,-0.1574,-0.1575,-0.1576,0,0,0,0,0,0,0,-0.1339,-0.1351,-0.1461,-0.145,-0.1452,-0.1436,-0.1445,-0.1472,-0.1518,-0.1494,-0.1495,-0.1499,-0.1539,-0.1554,-0.1557,-0.1598,-0.1573,-0.1575,-0.1577,-0.1578,-0.164,-0.164,0,0,0,0,0,0,-0.1334,-0.1347,-0.1459,-0.1462,-0.1394,-0.1439,-0.1449,-0.1483,-0.1518,-0.1523,-0.1499,-0.15,-0.1549,-0.1554,-0.1559,-0.16,-0.1575,-0.1578,-0.1579,-0.164,-0.164,-0.164,0,0,0,0,0,0,-0.1331,-0.1345,-0.1457,-0.1402,-0.1415,-0.1443,-0.148,-0.1484,-0.1502,-0.1523,-0.1527,-0.1512,-0.1549,-0.1555,-0.1579,-0.1601,-0.1579,-0.1581,-0.164,-0.164,-0.164,-0.1678,0,0,0,0,0,0,-0.1327,-0.1344,-0.1372,-0.1404,-0.1418,-0.1493,-0.148,-0.1486,-0.1504,-0.1505,-0.1535,-0.1539,-0.1549,-0.1575,-0.1581,-0.1605,-0.1583,-0.164,-0.164,-0.164,-0.1677,-0.1679,-0.1682,0,0,0,0,0,-0.1322,-0.1382,-0.1374,-0.1387,-0.1455,-0.1495,-0.1502,-0.1517,-0.1506,-0.1528,-0.1531,-0.1538,-0.158,-0.1577,-0.1585,-0.1609,-0.164,-0.164,-0.164,-0.1675,-0.1679,-0.1682,0,0,0,0,0,0,-0.1338,-0.139,-0.1382,-0.1455,-0.1469,-0.1497,-0.1531,-0.1521,-0.1542,-0.1547,-0.1547,-0.1552,-0.1578,-0.1584,-0.158,-0.1624,-0.1609,-0.1611,-0.1633,-0.1637,-0.1639,-0.1622,-0.1585,0,0,0,0,0,-0.135,-0.141,-0.1428,-0.1486,-0.1498,-0.1506,-0.1524,-0.153,-0.1548,-0.1557,-0.1564,-0.1574,-0.1586,-0.1602,-0.1616,-0.165,-0.1591,-0.1666,-0.1668,-0.1671,-0.1659,-0.1585,-0.158,-0.1641,-0.1641,-0.1641,0,0,-0.1376,-0.1408,-0.1444,-0.1492,-0.151,-0.1533,-0.1518,-0.156,-0.1566,-0.156,-0.1582,-0.1586,-0.1593,-0.1624,-0.1637,-0.1635,-0.1618,-0.1671,-0.1673,-0.166,-0.1585,-0.1578,-0.1573,-0.1641,-0.1641,-0.1641,0,0,-0.1448,-0.1481,-0.1542,-0.1554,-0.1579,-0.1577,-0.1583,-0.1603,-0.1603,-0.1624,-0.1609,-0.1612,-0.1651,-0.1645,-0.165,-0.1673,-0.1629,-0.1691,-0.1703,-0.1633,-0.1626,-0.162,-0.1517,-0.1501,-0.17,-0.17,-0.17,0,-0.1467,-0.1532,-0.1562,-0.1601,-0.1594,-0.1591,-0.1607,-0.1624,-0.164,-0.162,-0.1638,-0.1631,-0.1654,-0.1646,-0.167,-0.1679,-0.1621,-0.1696,-0.1634,-0.1627,-0.162,-0.1516,-0.1498,-0.1702,-0.1701,-0.1701,-0.1701,0,-0.1573,-0.1599,-0.1636,-0.1668,-0.1672,-0.1695,-0.1689,-0.1689,-0.1677,-0.1669,-0.1656,-0.167,-0.1647,-0.1677,-0.1698,-0.1666,-0.1631,-0.164,-0.1625,-0.1616,-0.1507,-0.1487,-0.1704,-0.1704,-0.1703,-0.1703,0,0,-0.1654,-0.1695,-0.1702,-0.1668,-0.1691,-0.1684,-0.1702,-0.1676,-0.1622,-0.1674,-0.1595,-0.1673,-0.1649,-0.165,-0.1658,-0.1638,-0.1558,-0.1638,-0.1634,-0.1532,-0.1371,-0.1274,-0.1243,-0.1561,-0.1559,-0.1557,-0.1306,0,-0.1699,-0.1744,-0.1758,-0.1741,-0.1729,-0.1703,-0.1678,-0.1659,-0.1632,-0.1563,-0.1587,-0.1525,-0.1647,-0.1595,-0.1615,-0.1545,-0.1513,-0.1623,-0.1397,-0.1389,-0.1302,-0.122,-0.1085,-0.0845,-0.1287,-0.1284,-0.1281,0,-0.1775,-0.177,-0.1777,-0.1677,-0.1667,-0.1651,-0.1537,-0.1518,-0.1458,-0.1424,-0.1415,-0.1397,-0.1377,-0.1453,-0.1387,-0.1452,-0.1424,-0.1396,-0.1385,-0.1267,-0.1257,-0.0929,-0.0793,-0.0992,-0.1251,-0.1254,-0.1256,0,-0.1761,-0.1753,-0.173,-0.1719,-0.1651,-0.1603,-0.1541,-0.1473,-0.136,-0.1298,-0.1171,-0.1216,-0.1097,-0.1153,-0.1149,-0.1244,-0.1028,-0.1129,-0.1014,-0.1005,-0.0828,-0.0808,-0.085,-0.1059,-0.106,-0.106,-0.1061,0,-0.1777,-0.1743,-0.1706,-0.169,-0.1561,-0.154,-0.1378,-0.1332,-0.1177,-0.0965,-0.1068,-0.0867,-0.1011,-0.092,-0.1028,-0.0924,-0.092,-0.0972,-0.0925,-0.0836,-0.082,-0.0937,-0.1076,-0.1051,-0.1053,-0.1055,-0.1057,0,-0.1766,-0.1772,-0.17,-0.1614,-0.1555,-0.1458,-0.1216,-0.1054,-0.0966,-0.0673,-0.0611,-0.0521,-0.0402,-0.0528,-0.0505,-0.0644,-0.0667,-0.0597,-0.0472,-0.0418,-0.0568,-0.0712,-0.0613,-0.0668,-0.0441,-0.0437,-0.0433,0,-0.1754,-0.1748,-0.163,-0.1506,-0.145,-0.1279,-0.1092,-0.0958,-0.0729,-0.0411,-0.0199,-0.0035,0.0167,0.0189,-0.0025,-0.0133,-0.0386,-0.0114,-0.0307,-0.0516,-0.0642,-0.0765,-0.0832,-0.007,-0.0064,-0.0059,-0.0055,0,-0.17,-0.1689,-0.161,-0.136,-0.116,-0.0905,-0.0626,-0.0421,-0.0174,0.0088,0.05,0.0672,0.0696,0.0685,0.0473,0.0331,-0.0215,-0.0014,-0.025,-0.0359,-0.0467,-0.0515,-0.0301,-0.001,-0.0015,-0.0018,-0.0021,-0.0022,-0.1616,-0.1523,-0.1384,-0.1117,-0.087,-0.047,-0.0176,0.0124,0.053,0.1014,0.1066,0.14,0.1223,0.0969,0.0718,0.0268,0.0155,0.0104,-0.0042,-0.0141,-0.024,0.0079,0.0409,0.0407,0.0406,0.0404,0.0403,0,-0.143,-0.1305,-0.1086,-0.07,-0.0315,-0.0254,0.0229,0.0564,0.1087,0.1409,0.1766,0.1909,0.1683,0.124,0.0658,0.0292,0.0064,0.0056,-0.0136,-0.0203,0.0106,0.0067,0.0363,0.0363,0.0363,0.0364,0.0364,0.0364,-0.1298,-0.1048,-0.0909,-0.022,0.0073,0.0658,0.0965,0.1338,0.1637,0.2133,0.2352,0.2452,0.2127,0.1069,0.0289,0.0076,-0.0326,-0.0283,-0.0544,-0.0424,-0.0435,-0.0446,-0.0521,-0.0352,-0.0353,-0.0769,-0.0773,-0.0776]}],[{"header":{"parameterUnit":"m.s-1","parameterCategory":2,"la1":30.2991,"la2":30.254,"lo1":-89.0895,"lo2":-89.0444,"dy":0.0017,"dx":0.0017,"nx":28,"ny":28,"refTime":"2024-06-10T09:00:00:Z","depth":"2","parameterNumber":2,"parameterNumberName":"U-component_of_CURRENTS"},"data":[0,0,0,0,0,0,0,0,0,0,0,0,0,0,0,0,0,0,0,0,0,0,0,0,0,0,0,0,0,0,0,0,0,0,0,0,0,0,0,0,0,0,0,0,0,0,0,0,0,0,0,0,0,0,0,0,0,0,0.0151,0.0152,0,0.0204,0.0204,0.0205,0.0159,0.0157,0.0155,0.0154,0.011,0.011,0.0111,0,0,0,0,0,0,0,0,0,0,0,0,0,0.0043,0.0045,0.0151,0.0152,0.0152,0.0204,0.0204,0.0205,0.0159,0.0157,0.0155,0.0153,0.011,0.011,0.0111,0,0,0,0,0,0,0,0,0,0,0,0,0,0.0091,0.0045,0.0151,0.0137,0.0136,0.0204,0.0204,0.0205,0.016,0.0157,0.0154,0.0152,0.0109,0.011,0.0111,0.0168,0,0,0.0113,0.0113,0,0,0,0,0,0,0,0,0.0088,0.0095,0.0138,0.0138,0.0137,0.0173,0.015,0.0188,0.016,0.0149,0.0154,0.0151,0.0125,0.0124,0.014,0.0166,0.0164,0.0113,0.0114,0.0114,0.0114,0,0,0,0,0,0,0,0.0085,0.0092,0.017,0.0139,0.0139,0.0139,0.0143,0.0158,0.0148,0.015,0.0147,0.0156,0.0123,0.0139,0.0138,0.0164,0.0113,0.0114,0.0114,0.0114,0.0183,0.0184,0,0,0,0,0,0,0.0083,0.009,0.0169,0.0172,0.0107,0.0143,0.0147,0.0163,0.015,0.0147,0.0158,0.0154,0.0139,0.0137,0.0136,0.0123,0.0114,0.0115,0.0115,0.0182,0.0183,0.0185,0,0,0,0,0,0,0.0081,0.009,0.0167,0.0132,0.0142,0.0148,0.0167,0.0166,0.0169,0.0158,0.0152,0.0161,0.0137,0.0135,0.0149,0.0123,0.0115,0.0116,0.018,0.0182,0.0184,0.0148,0,0,0,0,0,0,0.0077,0.0089,0.0102,0.0133,0.0144,0.0185,0.0169,0.0169,0.018,0.0174,0.0159,0.0152,0.0135,0.0148,0.015,0.0124,0.0116,0.0178,0.0181,0.0184,0.0148,0.0149,0.015,0,0,0,0,0,0.0074,0.0092,0.0103,0.0112,0.0161,0.0185,0.019,0.0185,0.0183,0.0179,0.0185,0.0152,0.0164,0.0151,0.0152,0.0126,0.0177,0.018,0.0183,0.0147,0.0149,0.015,0,0,0,0,0,0,0.0048,0.0091,0.0102,0.0132,0.015,0.0177,0.0185,0.0192,0.0199,0.0194,0.0181,0.0177,0.0175,0.0179,0.0164,0.016,0.0162,0.0166,0.0134,0.0135,0.0136,0.0082,0.0117,0,0,0,0,0,0.0055,0.0082,0.0113,0.0139,0.0149,0.0174,0.0186,0.0185,0.0199,0.0199,0.0195,0.0197,0.0198,0.0187,0.0194,0.0203,0.0248,0.0189,0.0189,0.019,0.0151,0.0217,0.022,0.0195,0.0195,0.0195,0,0,0.0058,0.0083,0.01,0.0137,0.0155,0.0159,0.0173,0.019,0.0181,0.0196,0.0189,0.0205,0.0207,0.0204,0.0202,0.0195,0.0241,0.0194,0.0193,0.0154,0.0221,0.0223,0.0224,0.0197,0.0197,0.0197,0,0,0.0065,0.0095,0.0113,0.0122,0.0149,0.0158,0.0162,0.0189,0.0182,0.0202,0.0201,0.0206,0.0222,0.0201,0.0197,0.0218,0.0252,0.0226,0.0169,0.0235,0.0236,0.0238,0.0377,0.039,0.0216,0.0216,0.0216,0,0.0065,0.0069,0.0119,0.0125,0.0107,0.0153,0.0131,0.0156,0.018,0.017,0.0188,0.0209,0.021,0.0186,0.0177,0.0211,0.0285,0.0156,0.0233,0.0235,0.0237,0.0378,0.0393,0.0214,0.0214,0.0215,0.0215,0,0.0079,0.0061,0.0067,0.0079,0.0085,0.0068,0.0097,0.0104,0.0116,0.0133,0.0133,0.0163,0.0168,0.017,0.0168,0.0169,0.0237,0.0234,0.0218,0.0236,0.0386,0.0403,0.0212,0.0213,0.0213,0.0214,0,0,0.0107,0.0072,0.0069,0.0035,0.0033,0.0045,0.0029,0.0015,0.0045,0.0053,0.0076,0.0046,0.0086,0.0084,0.0104,0.0125,0.0228,0.0169,0.0173,0.0287,0.0439,0.0478,0.0502,0.0241,0.0242,0.0243,0.0566,0,0.0075,0.0016,0.0023,-0.003,-0.0078,-0.0063,-0.0055,-0.0041,-0.0005,0.0057,0.0053,0.012,0.0053,0.0108,0.0097,0.0224,0.0258,0.0144,0.0418,0.0427,0.0442,0.0515,0.038,0.0653,0.0583,0.0585,0.0587,0,0.0054,0.0009,-0.0094,-0.013,-0.0132,-0.013,-0.0125,-0.0094,-0.0015,0.003,0.0047,0.0123,0.0158,0.0139,0.0265,0.0206,0.0289,0.0363,0.0379,0.0417,0.0493,0.0611,0.0686,0.0616,0.0614,0.0612,0.061,0,-0.0024,-0.0075,-0.0187,-0.0207,-0.0214,-0.0231,-0.0194,-0.0126,-0.0038,0.0055,0.0175,0.0187,0.0323,0.0345,0.0479,0.0401,0.0677,0.0615,0.0717,0.0727,0.066,0.066,0.0677,0.0677,0.0676,0.0675,0.0674,0,-0.0123,-0.0183,-0.0222,-0.0277,-0.0256,-0.026,-0.0179,-0.0126,0.0009,0.0163,0.0189,0.0341,0.0382,0.0549,0.0564,0.0736,0.0761,0.0719,0.0795,0.0657,0.0652,0.0625,0.0615,0.0687,0.0684,0.0682,0.068,0,-0.0193,-0.027,-0.0318,-0.0333,-0.0307,-0.0263,-0.009,0.0006,0.0108,0.0322,0.0382,0.0551,0.0753,0.0827,0.0986,0.0937,0.1047,0.1089,0.0962,0.1011,0.1031,0.1016,0.1228,0.1232,0.1235,0.1238,0.124,0,-0.0249,-0.0313,-0.0294,-0.0235,-0.023,-0.0145,-0.0044,0.0057,0.0181,0.0455,0.0575,0.0834,0.097,0.1236,0.1233,0.1321,0.1265,0.1247,0.1001,0.1027,0.108,0.106,0.1041,0.096,0.0959,0.0959,0.0959,0,-0.0262,-0.0256,-0.0246,-0.015,-0.0062,0.0053,0.0179,0.0277,0.0424,0.058,0.0809,0.0931,0.1186,0.1228,0.1356,0.1336,0.1199,0.1244,0.1351,0.0813,0.0791,0.0837,0.0824,0.0957,0.0957,0.0957,0.0957,0.0957,-0.0178,-0.0119,-0.0089,0.0029,0.0122,0.0215,0.0307,0.0414,0.0568,0.0765,0.0897,0.1056,0.1117,0.1242,0.1253,0.1257,0.1282,0.1161,0.1154,0.1149,0.1032,0.1012,0.1205,0.1207,0.1208,0.1209,0.121,0,-0.0026,0.0024,0.0116,0.0223,0.0316,0.0333,0.0455,0.0504,0.0624,0.0795,0.0934,0.096,0.1011,0.1111,0.1102,0.1084,0.0969,0.1039,0.0871,0.0875,0.0878,0.0737,0.0839,0.0838,0.0837,0.0836,0,0,0.0069,0.0189,0.022,0.0374,0.0441,0.0532,0.0579,0.0611,0.0696,0.0789,0.0891,0.0995,0.1077,0.0973,0.0935,0.0912,0.0873,0.0859,0.1153,0.0961,0.0963,0.0947,0.0737,0,0,0,0,0]},{"header":{"parameterUnit":"m.s-1","parameterCategory":2,"la1":30.2991,"la2":30.254,"lo1":-89.0895,"lo2":-89.0444,"dy":0.0017,"dx":0.0017,"nx":28,"ny":28,"refTime":"2024-06-10T09:00:00:Z","depth":"2","parameterNumber":3,"parameterNumberName":"V-component_of_CURRENTS"},"data":[0,0,0,0,0,0,0,0,0,0,0,0,0,0,0,0,0,0,0,0,0,0,0,0,0,0,0,0,0,0,0,0,0,0,0,0,0,0,0,0,0,0,0,0,0,0,0,0,0,0,0,0,0,0,0,0,0,0,-0.0233,-0.0233,0,-0.0206,-0.0206,-0.0206,-0.0172,-0.0171,-0.0171,-0.017,-0.0022,-0.0018,-0.0015,0,0,0,0,0,0,0,0,0,0,0,0,0,-0.0227,-0.0228,-0.0233,-0.0233,-0.0233,-0.0206,-0.0206,-0.0206,-0.0172,-0.0171,-0.0171,-0.017,-0.0023,-0.0019,-0.0014,0,0,0,0,0,0,0,0,0,0,0,0,0,-0.0218,-0.0228,-0.0233,-0.0213,-0.0211,-0.0207,-0.0206,-0.0205,-0.0172,-0.0171,-0.0171,-0.017,-0.0024,-0.0019,-0.0014,0.0005,0,0,0.0002,0.0005,0,0,0,0,0,0,0,0,-0.0218,-0.0218,-0.0217,-0.0215,-0.0213,-0.0192,-0.0149,-0.0129,-0.0172,-0.0186,-0.017,-0.017,-0.0068,-0.0059,-0.0057,0.0012,0.0018,0.0003,0.0006,0.0008,0.001,0,0,0,0,0,0,0,-0.0219,-0.0218,-0.0222,-0.0216,-0.0214,-0.0196,-0.0194,-0.0146,-0.0129,-0.0185,-0.0182,-0.0181,-0.0066,-0.0062,-0.0052,0.002,0.0003,0.0007,0.0011,0.0013,0.0069,0.0067,0,0,0,0,0,0,-0.0226,-0.0219,-0.0223,-0.0221,-0.0215,-0.0197,-0.0195,-0.0199,-0.0132,-0.0122,-0.0182,-0.018,-0.0071,-0.0059,-0.0047,-0.0057,0.0008,0.0013,0.0016,0.0071,0.0068,0.0067,0,0,0,0,0,0,-0.0226,-0.0227,-0.0224,-0.022,-0.0218,-0.0198,-0.0203,-0.0199,-0.0197,-0.0131,-0.0118,-0.0184,-0.007,-0.0054,-0.0026,-0.0049,0.0016,0.0021,0.0072,0.007,0.0068,-0.0053,0,0,0,0,0,0,-0.0226,-0.0227,-0.0235,-0.0221,-0.0219,-0.0232,-0.0204,-0.0199,-0.0197,-0.0194,-0.0128,-0.0114,-0.0068,-0.0034,-0.0021,-0.0041,0.0025,0.0075,0.0071,0.0068,-0.0047,-0.006,-0.007,0,0,0,0,0,-0.0226,-0.0246,-0.0236,-0.0236,-0.0229,-0.0233,-0.0231,-0.0212,-0.0198,-0.0206,-0.0171,-0.0116,-0.0045,-0.0032,-0.0015,-0.0034,0.0076,0.0072,0.0069,-0.0042,-0.0057,-0.007,0,0,0,0,0,0,-0.0246,-0.0244,-0.0232,-0.0249,-0.0244,-0.0227,-0.0238,-0.022,-0.02,-0.0198,-0.0131,-0.0115,-0.0102,-0.0053,-0.0041,-0.003,0.0023,0.0022,-0.0067,-0.0081,-0.0092,-0.0061,0.0029,0,0,0,0,0,-0.0255,-0.0271,-0.0259,-0.0273,-0.0276,-0.0257,-0.0256,-0.0245,-0.0225,-0.0216,-0.0173,-0.0133,-0.0106,-0.0082,-0.0049,-0.0033,0.0021,-0.0038,-0.005,-0.006,-0.0025,0.0023,0.0019,0.0054,0.0054,0.0054,0,0,-0.0264,-0.0268,-0.0274,-0.0279,-0.0276,-0.028,-0.0255,-0.0266,-0.0264,-0.0201,-0.0191,-0.0169,-0.0113,-0.0109,-0.0098,-0.0068,-0.0055,-0.0064,-0.0073,-0.0032,0.0018,0.0016,0.0013,0.0052,0.0052,0.0053,0,0,-0.0296,-0.03,-0.0321,-0.0322,-0.0325,-0.0312,-0.0317,-0.0307,-0.03,-0.03,-0.0257,-0.025,-0.0206,-0.0174,-0.0151,-0.02,-0.0122,-0.0197,-0.022,-0.0177,-0.0179,-0.0179,-0.0171,-0.0169,-0.0199,-0.0199,-0.0199,0,-0.03,-0.0324,-0.0327,-0.0345,-0.0337,-0.0327,-0.033,-0.0332,-0.0313,-0.0286,-0.0314,-0.0251,-0.0237,-0.0189,-0.0234,-0.0224,-0.0189,-0.0176,-0.019,-0.0189,-0.0187,-0.0178,-0.0175,-0.0205,-0.0205,-0.0204,-0.0203,0,-0.0338,-0.0357,-0.0375,-0.0385,-0.0379,-0.039,-0.0379,-0.0372,-0.0372,-0.0354,-0.033,-0.0329,-0.0267,-0.0302,-0.0293,-0.0267,-0.0248,-0.0217,-0.0152,-0.0198,-0.0187,-0.0181,-0.0214,-0.0212,-0.021,-0.0209,0,0,-0.034,-0.0387,-0.0396,-0.0376,-0.0395,-0.0373,-0.0384,-0.0351,-0.0301,-0.0346,-0.0285,-0.033,-0.0305,-0.0277,-0.0265,-0.0267,-0.0292,-0.0249,-0.0244,-0.0236,-0.0212,-0.0306,-0.0309,-0.0256,-0.0254,-0.0253,-0.0229,0,-0.0358,-0.0395,-0.041,-0.04,-0.0395,-0.0375,-0.0354,-0.0324,-0.031,-0.0257,-0.0276,-0.0229,-0.0298,-0.0267,-0.0287,-0.0266,-0.0272,-0.0302,-0.0169,-0.0165,-0.0239,-0.0303,-0.0314,-0.0301,-0.0223,-0.0222,-0.0221,0,-0.0389,-0.0392,-0.041,-0.0353,-0.0342,-0.0323,-0.0229,-0.0213,-0.0159,-0.0143,-0.0123,-0.0113,-0.0122,-0.0174,-0.0179,-0.0189,-0.0205,-0.022,-0.0218,-0.0241,-0.0248,-0.0231,-0.0292,-0.021,-0.0211,-0.0212,-0.0213,0,-0.0378,-0.0379,-0.0379,-0.0374,-0.0325,-0.0281,-0.0233,-0.0169,-0.0115,-0.0049,-0.0006,-0.0002,0.001,-0.0015,-0.0111,-0.0114,-0.0125,-0.0113,-0.021,-0.0218,-0.0165,-0.0171,-0.0092,-0.0092,-0.0092,-0.0092,-0.0092,0,-0.0401,-0.0387,-0.0357,-0.0353,-0.0252,-0.023,-0.0122,-0.007,0.0007,0.0082,0.0071,0.0109,0.0051,0.0018,-0.0056,-0.0148,-0.0076,-0.0216,-0.0213,-0.0219,-0.023,-0.008,-0.0079,-0.0091,-0.0092,-0.0092,-0.0092,0,-0.0415,-0.0434,-0.0379,-0.0303,-0.0262,-0.0178,-0.0052,0.0018,0.0088,0.0183,0.0206,0.0206,0.0144,0.0057,0.0008,-0.0079,-0.0146,-0.0185,-0.0226,-0.0231,-0.0276,-0.0281,-0.0262,-0.0265,-0.0268,-0.027,-0.0272,0,-0.0432,-0.0427,-0.0329,-0.0273,-0.0236,-0.0118,-0.0049,0.0048,0.0114,0.0223,0.0258,0.024,0.0193,0.0048,-0.0103,-0.0234,-0.0206,-0.0302,-0.0321,-0.0292,-0.029,-0.0292,-0.0294,-0.0309,-0.0311,-0.0313,-0.0314,0,-0.0413,-0.0393,-0.035,-0.0245,-0.0161,-0.0056,0.0048,0.0119,0.0218,0.0292,0.0343,0.0318,0.0155,-0.0023,-0.0223,-0.0302,-0.0292,-0.0342,-0.025,-0.0292,-0.0341,-0.0339,-0.0337,-0.0328,-0.0327,-0.0326,-0.0325,-0.0324,-0.038,-0.0336,-0.0295,-0.0192,-0.01,-0.001,0.0081,0.0169,0.0274,0.0363,0.0334,0.0304,0.0116,-0.0179,-0.0324,-0.0437,-0.0432,-0.0444,-0.0435,-0.0425,-0.0463,-0.0517,-0.0545,-0.0544,-0.0544,-0.0544,-0.0544,0,-0.0327,-0.0309,-0.0236,-0.0136,-0.0059,0.0005,0.0133,0.02,0.0315,0.0339,0.035,0.0182,-0.0031,-0.0184,-0.0399,-0.0548,-0.0509,-0.0546,-0.0465,-0.0453,-0.0442,-0.0476,-0.0563,-0.0563,-0.0562,-0.0562,0,0,-0.0303,-0.0263,-0.025,-0.0135,-0.0047,0.0075,0.016,0.025,0.0307,0.0335,0.0326,0.0178,-0.0005,-0.016,-0.0361,-0.0449,-0.0399,-0.0454,-0.0435,-0.0309,-0.0294,-0.0396,-0.0438,0,0,0,0,0]}],[{"header":{"parameterUnit":"m.s-1","parameterCategory":2,"la1":30.2991,"la2":30.254,"lo1":-89.0895,"lo2":-89.0444,"dy":0.0017,"dx":0.0017,"nx":28,"ny":28,"refTime":"2024-06-10T09:00:00:Z","depth":"4","parameterNumber":2,"parameterNumberName":"U-component_of_CURRENTS"},"data":[0,0,0,0,0,0,0,0,0,0,0,0,0,0,0,0,0,0,0,0,0,0,0,0,0,0,0,0,0,0,0,0,0,0,0,0,0,0,0,0,0,0,0,0,0,0,0,0,0,0,0,0,0,0,0,0,0,0,-0.0102,-0.0102,0,-0.0058,-0.0058,-0.0058,-0.0047,-0.0047,-0.0047,-0.0047,-0.0024,-0.0023,-0.0022,0,0,0,0,0,0,0,0,0,0,0,0,0,-0.0165,-0.0164,-0.0102,-0.0102,-0.0101,-0.0058,-0.0058,-0.0057,-0.0047,-0.0047,-0.0047,-0.0048,-0.0024,-0.0023,-0.0022,0,0,0,0,0,0,0,0,0,0,0,0,0,-0.0132,-0.0164,-0.0102,-0.009,-0.0088,-0.0059,-0.0058,-0.0057,-0.0047,-0.0047,-0.0047,-0.0048,-0.0024,-0.0023,-0.0022,-0.0008,0,0,-0.0018,-0.0017,0,0,0,0,0,0,0,0,-0.0134,-0.013,-0.0092,-0.0091,-0.0089,-0.0058,-0.0071,-0.0041,-0.0047,-0.0063,-0.0048,-0.0048,-0.0036,-0.0034,-0.0026,-0.0007,-0.0006,-0.0018,-0.0017,-0.0017,-0.0016,0,0,0,0,0,0,0,-0.0137,-0.0132,-0.0086,-0.0092,-0.009,-0.0083,-0.0078,-0.0066,-0.005,-0.0062,-0.0061,-0.0055,-0.0035,-0.0027,-0.0025,-0.0005,-0.0018,-0.0017,-0.0016,-0.0016,0.0026,0.0026,0,0,0,0,0,0,-0.014,-0.0134,-0.0087,-0.0084,-0.0112,-0.0081,-0.0077,-0.0068,-0.0049,-0.0046,-0.0054,-0.0054,-0.0029,-0.0027,-0.0024,0.0007,-0.0017,-0.0015,-0.0015,0.0025,0.0026,0.0026,0,0,0,0,0,0,-0.0142,-0.0136,-0.0089,-0.0108,-0.0101,-0.008,-0.007,-0.0067,-0.0057,-0.0043,-0.0041,-0.0047,-0.0029,-0.0026,-0.0012,0.0008,-0.0015,-0.0014,0.0025,0.0025,0.0026,0.0062,0,0,0,0,0,0,-0.0144,-0.0137,-0.0131,-0.0108,-0.01,-0.0068,-0.007,-0.0066,-0.0052,-0.0052,-0.0036,-0.0034,-0.0029,-0.0014,-0.0011,0.0009,-0.0013,0.0024,0.0025,0.0026,0.006,0.0063,0.0066,0,0,0,0,0,-0.0146,-0.0133,-0.0131,-0.0125,-0.0093,-0.0068,-0.0063,-0.005,-0.0052,-0.0043,-0.0036,-0.0035,-0.0008,-0.0013,-0.0009,0.0012,0.0024,0.0025,0.0026,0.0059,0.0063,0.0066,0,0,0,0,0,0,-0.0155,-0.013,-0.0128,-0.0108,-0.009,-0.0066,-0.0053,-0.0048,-0.0035,-0.0034,-0.0029,-0.0026,-0.0009,-0.0006,-0.0012,0.0023,0.0008,0.0009,0.0032,0.0035,0.0038,0.0052,-0.0012,0,0,0,0,0,-0.0156,-0.014,-0.0118,-0.0102,-0.0092,-0.0074,-0.0062,-0.0052,-0.0038,-0.0032,-0.002,-0.0011,-0.0002,0.001,0.0016,0.004,0.0043,0.0054,0.0057,0.006,0.0073,0.0081,0.0086,0.0029,0.0029,0.0029,0,0,-0.0156,-0.0138,-0.013,-0.0103,-0.0087,-0.0062,-0.0068,-0.0045,-0.0021,-0.0031,0.0001,-0.0002,0.0004,0.0028,0.0036,0.0034,0.0078,0.0061,0.0063,0.0075,0.0082,0.0088,0.0093,0.0029,0.0029,0.0029,0,0,-0.0143,-0.0131,-0.0114,-0.0095,-0.0068,-0.0052,-0.0046,-0.002,-0.0007,0.0022,0.0015,0.0022,0.0049,0.0054,0.0059,0.0083,0.0088,0.0087,0.0125,0.0132,0.0137,0.0142,0.0156,0.0161,0.0096,0.0096,0.0096,0,-0.0143,-0.012,-0.0105,-0.0079,-0.0063,-0.0047,-0.0025,-0.0,0.0027,0.0036,0.0038,0.006,0.0064,0.0083,0.0098,0.0092,0.0101,0.0112,0.0137,0.0142,0.0146,0.0159,0.0165,0.0098,0.0097,0.0097,0.0097,0,-0.0116,-0.0097,-0.0083,-0.0046,-0.0025,-0.0004,0.0029,0.0052,0.0068,0.0084,0.0105,0.0109,0.0121,0.0124,0.0128,0.0155,0.0154,0.0134,0.0131,0.0154,0.0166,0.0172,0.01,0.01,0.0099,0.0099,0,0,-0.0128,-0.0076,-0.0073,-0.0051,-0.001,0.0014,0.0053,0.0085,0.0111,0.0136,0.016,0.018,0.0175,0.0181,0.0175,0.0194,0.0232,0.019,0.019,0.021,0.0263,0.0289,0.0297,0.0221,0.0222,0.0223,0.0262,0,-0.0117,-0.007,-0.0049,-0.0002,0.0024,0.005,0.0087,0.0121,0.0148,0.018,0.0183,0.0204,0.0199,0.0206,0.0224,0.0224,0.0247,0.0224,0.0233,0.0234,0.0258,0.0304,0.0226,0.0266,0.0267,0.0268,0.0268,0,-0.0104,-0.0074,-0.003,0.002,0.0033,0.0068,0.0118,0.0152,0.0195,0.0213,0.0231,0.0236,0.0264,0.0253,0.0283,0.0272,0.0281,0.0283,0.0283,0.0302,0.027,0.0235,0.0278,0.0277,0.0276,0.0275,0.0275,0,-0.0117,-0.0065,-0.003,-0.001,0.0055,0.008,0.0112,0.016,0.0192,0.0232,0.0258,0.0275,0.0298,0.0305,0.033,0.0308,0.0369,0.0324,0.0355,0.0356,0.0303,0.0297,0.0353,0.0353,0.0353,0.0353,0.0353,0,-0.0117,-0.0088,-0.0027,-0.0001,0.0046,0.0085,0.0134,0.0169,0.0214,0.0259,0.0274,0.0316,0.0318,0.0354,0.0352,0.039,0.0384,0.0382,0.0376,0.0316,0.0312,0.0307,0.0301,0.0354,0.0354,0.0353,0.0353,0,-0.0123,-0.0094,-0.0037,0.003,0.0049,0.009,0.0152,0.0184,0.0229,0.0289,0.0305,0.0359,0.0412,0.0421,0.0445,0.0431,0.0447,0.046,0.0423,0.0409,0.0417,0.0413,0.048,0.0482,0.0483,0.0484,0.0485,0,-0.0122,-0.0089,-0.0007,0.002,0.0054,0.0108,0.0139,0.0189,0.0226,0.0324,0.0354,0.0427,0.0462,0.0522,0.052,0.0525,0.0516,0.0513,0.0446,0.0448,0.0434,0.0428,0.0422,0.0487,0.0487,0.0488,0.0488,0,-0.0099,-0.0059,-0.0011,0.0039,0.008,0.0123,0.0175,0.0209,0.0277,0.0313,0.0414,0.0458,0.0528,0.0546,0.0573,0.0565,0.0502,0.0525,0.052,0.0458,0.0456,0.044,0.0433,0.0492,0.0491,0.0491,0.0491,0,-0.0071,-0.0034,0.0026,0.0071,0.0102,0.0139,0.017,0.0233,0.028,0.0386,0.0424,0.0501,0.0546,0.0571,0.0591,0.0598,0.0568,0.0525,0.052,0.0515,0.0508,0.0511,0.0579,0,0,0,0,0,-0.0038,0.0003,0.0044,0.0096,0.0116,0.0139,0.0192,0.0221,0.0292,0.0362,0.0397,0.0467,0.053,0.056,0.0571,0.0582,0.0551,0.059,0.0494,0.0515,0.051,0.0498,0,0,0,0,0,0,-0.0016,0.0035,0.0055,0.0096,0.0124,0.0155,0.0192,0.0241,0.0286,0.0359,0.0395,0.0441,0.0498,0.0523,0.0563,0.057,0.0502,0.0627,0.0626,0.0518,0.0514,0.051,0.0495,0,0,0,0,0]},{"header":{"parameterUnit":"m.s-1","parameterCategory":2,"la1":30.2991,"la2":30.254,"lo1":-89.0895,"lo2":-89.0444,"dy":0.0017,"dx":0.0017,"nx":28,"ny":28,"refTime":"2024-06-10T09:00:00:Z","depth":"4","parameterNumber":3,"parameterNumberName":"V-component_of_CURRENTS"},"data":[0,0,0,0,0,0,0,0,0,0,0,0,0,0,0,0,0,0,0,0,0,0,0,0,0,0,0,0,0,0,0,0,0,0,0,0,0,0,0,0,0,0,0,0,0,0,0,0,0,0,0,0,0,0,0,0,0,0,0.0118,0.0118,0,0.0113,0.0113,0.0113,0.0096,0.0095,0.0095,0.0095,0.0044,0.0042,0.0041,0,0,0,0,0,0,0,0,0,0,0,0,0,0.0073,0.0074,0.0118,0.0118,0.0119,0.0113,0.0113,0.0113,0.0096,0.0095,0.0095,0.0095,0.0044,0.0043,0.0041,0,0,0,0,0,0,0,0,0,0,0,0,0,0.0082,0.0074,0.0118,0.011,0.011,0.0113,0.0113,0.0113,0.0096,0.0095,0.0095,0.0095,0.0044,0.0043,0.0041,0.0039,0,0,0.0036,0.0035,0,0,0,0,0,0,0,0,0.0081,0.0083,0.0111,0.0111,0.011,0.0106,0.0078,0.0086,0.0096,0.01,0.0095,0.0094,0.0061,0.0058,0.0057,0.0036,0.0034,0.0036,0.0035,0.0034,0.0034,0,0,0,0,0,0,0,0.0081,0.0083,0.0115,0.0112,0.0111,0.0093,0.0094,0.0079,0.0081,0.0099,0.0098,0.01,0.006,0.0059,0.0055,0.0033,0.0036,0.0034,0.0033,0.0033,-0.0022,-0.0023,0,0,0,0,0,0,0.0087,0.0083,0.0115,0.0115,0.0096,0.0094,0.0095,0.0107,0.0082,0.0079,0.01,0.0099,0.0062,0.0057,0.0054,0.0073,0.0034,0.0033,0.0032,-0.0022,-0.0022,-0.0023,0,0,0,0,0,0,0.0086,0.009,0.0116,0.0099,0.0101,0.0096,0.0108,0.0107,0.0105,0.0084,0.0079,0.01,0.0061,0.0056,0.0036,0.007,0.0032,0.003,-0.0021,-0.0022,-0.0023,0.0096,0,0,0,0,0,0,0.0085,0.009,0.0101,0.01,0.0102,0.0139,0.0109,0.0107,0.0107,0.0105,0.0082,0.0077,0.006,0.0039,0.0035,0.0067,0.0029,-0.0021,-0.0021,-0.0022,0.0093,0.01,0.0105,0,0,0,0,0,0.0083,0.0125,0.0102,0.0106,0.0118,0.014,0.0141,0.0133,0.0107,0.0125,0.0089,0.0078,0.003,0.0037,0.0032,0.0065,-0.002,-0.0021,-0.0022,0.009,0.0098,0.0105,0,0,0,0,0,0,0.0119,0.0127,0.0102,0.0143,0.0141,0.0138,0.0161,0.0135,0.0121,0.0114,0.0076,0.0069,0.0062,0.0034,0.0042,0.0039,0.0002,-0.0,0.0088,0.0096,0.0102,0.0053,0.0028,0,0,0,0,0,0.0127,0.0161,0.0147,0.0182,0.0183,0.0162,0.0167,0.0157,0.0143,0.0136,0.0113,0.0079,0.0054,0.0051,0.0026,0.0031,-0.0028,0.0041,0.0048,0.0054,0.0005,-0.0039,-0.004,-0.0026,-0.0026,-0.0026,0,0,0.0154,0.016,0.018,0.0191,0.0189,0.0202,0.0166,0.0187,0.019,0.0132,0.0135,0.01,0.0054,0.006,0.0055,0.0045,0.0025,0.0052,0.0059,0.0005,-0.004,-0.0041,-0.0042,-0.0027,-0.0027,-0.0027,0,0,0.0225,0.0224,0.0266,0.0263,0.0263,0.025,0.0253,0.0242,0.0233,0.0227,0.0177,0.0146,0.013,0.0098,0.0079,0.0094,0.0053,0.0101,0.011,0.0071,0.007,0.0068,0.0026,0.0019,0.0116,0.0116,0.0116,0,0.0252,0.0265,0.0282,0.0306,0.0279,0.0269,0.0264,0.0284,0.0264,0.0217,0.0243,0.0144,0.0142,0.0089,0.0111,0.0112,0.0073,0.0102,0.0082,0.0078,0.0074,0.0031,0.0022,0.0121,0.0121,0.012,0.012,0,0.0334,0.0324,0.0351,0.0358,0.0359,0.0353,0.0354,0.0348,0.0324,0.0294,0.0235,0.0223,0.0139,0.0171,0.0159,0.0119,0.0097,0.0097,0.0073,0.0081,0.0034,0.0022,0.0129,0.0127,0.0126,0.0124,0,0,0.0396,0.0398,0.0391,0.0341,0.0348,0.0337,0.0362,0.0308,0.0259,0.028,0.0193,0.0203,0.0152,0.012,0.0108,0.0103,0.0094,0.0099,0.0094,0.0072,-0.0001,0.0016,0.0004,0.0103,0.01,0.0099,-0.0008,0,0.0409,0.0399,0.0414,0.0372,0.0328,0.0311,0.0312,0.0282,0.0254,0.0198,0.0173,0.0112,0.0153,0.011,0.0114,0.0072,0.006,0.012,-0.0024,-0.003,-0.0001,-0.001,0.0092,-0.0017,-0.002,-0.0022,-0.0023,0,0.0428,0.0395,0.0344,0.0255,0.024,0.0241,0.0136,0.014,0.0093,0.0067,0.0013,-0.0007,-0.0042,0.0013,-0.0046,-0.0008,-0.0014,-0.0015,-0.0019,-0.0071,-0.0036,-0.0041,-0.0046,-0.0044,-0.0042,-0.0041,-0.0039,0,0.0344,0.0314,0.0235,0.0215,0.0172,0.0131,0.0105,0.0064,0.0035,-0.0038,-0.007,-0.0125,-0.0153,-0.0166,-0.0145,-0.0107,-0.0202,-0.0154,-0.0153,-0.0152,-0.0185,-0.0183,-0.0213,-0.0213,-0.0213,-0.0212,-0.0212,0,0.0272,0.0206,0.0183,0.0132,0.0039,0.0039,-0.0048,-0.0075,-0.0109,-0.0138,-0.0158,-0.0177,-0.0193,-0.0224,-0.0205,-0.0224,-0.0257,-0.0188,-0.0188,-0.0128,-0.0119,-0.0191,-0.0188,-0.0216,-0.0215,-0.0215,-0.0214,0,0.0167,0.0157,0.0067,0.001,-0.0008,-0.008,-0.0109,-0.0142,-0.0181,-0.0213,-0.0231,-0.0247,-0.0274,-0.0294,-0.033,-0.0305,-0.0327,-0.0327,-0.0288,-0.028,-0.0236,-0.0225,-0.0349,-0.0349,-0.035,-0.035,-0.035,0,0.0099,0.0043,-0.0021,-0.0043,-0.007,-0.0144,-0.0158,-0.0188,-0.0189,-0.0224,-0.0221,-0.0277,-0.0274,-0.0336,-0.035,-0.0386,-0.0357,-0.0395,-0.029,-0.0267,-0.0256,-0.0244,-0.0232,-0.0351,-0.0351,-0.0351,-0.0351,0,-0.0033,-0.0038,-0.0092,-0.0127,-0.0149,-0.0177,-0.0195,-0.0201,-0.0198,-0.0228,-0.021,-0.0236,-0.0278,-0.0307,-0.0366,-0.0365,-0.0386,-0.0398,-0.0395,-0.0298,-0.0271,-0.0256,-0.0245,-0.0353,-0.0353,-0.0353,-0.0353,0,-0.0111,-0.0154,-0.0176,-0.0207,-0.021,-0.0186,-0.0206,-0.0173,-0.0186,-0.0183,-0.0174,-0.0215,-0.0246,-0.0297,-0.033,-0.0364,-0.0331,-0.0312,-0.0313,-0.0312,-0.025,-0.0207,-0.0299,0,0,0,0,0,-0.0195,-0.0213,-0.0237,-0.0248,-0.0228,-0.0224,-0.0196,-0.0187,-0.0175,-0.0146,-0.0156,-0.0175,-0.0223,-0.0256,-0.0282,-0.0332,-0.0354,-0.0363,-0.0335,-0.0361,-0.036,-0.0289,0,0,0,0,0,0,-0.0242,-0.0274,-0.0258,-0.0252,-0.0245,-0.022,-0.0195,-0.0179,-0.0157,-0.015,-0.0174,-0.0182,-0.0238,-0.0217,-0.0289,-0.0302,-0.0283,-0.0394,-0.0394,-0.0362,-0.0361,-0.0359,-0.0287,0,0,0,0,0]}]]